sat.trackr.live / text

‹ back to catalog

STARLINK-31845

NORAD 60129 · 2024-118S

PAYLOAD ACTIVE UNKNOWN

§ Identity

Operator
Country
US
Launch date
2024-06-24
Launch site
AFWTR
Launch vehicle
Mass (kg)
RCS (m²)

Purposes: comms

External: N2YO · Heavens-Above · Gunter

§ Orbital elements

Epoch: 2026-05-24T22:58:22.580256Z

Period
94.11 min
Inclination
53.1611°
Eccentricity
0.0001222
Mean motion
15.30196703 rev/d
Perigee alt
474.4 km
Apogee alt
476.1 km
Semi-major
6,853.4 km
B*
5.2738e-5
RAAN
30.3026°
Arg perigee
81.9151°
Mean anomaly
278.1988°
Rev number
10,740

§ Raw data

STARLINK-318451 60129U 24118S   26144.95720579  .00001203  00000+0  52738-4 0  99992 60129  53.1611  30.3026 0001222  81.9151 278.1988 15.30196703107403

JSON: /api/v1/satellites/60129 · /tle

For live sub-satellite position, see the globe view (requires WebGL).

§ Visibility from observer

Set your observer location to see the next 7 days of passes ≥ 10°. The values pass through the URL so the page stays shareable.

No JS? Fill the form by hand. The geolocation button needs JavaScript.